Location: Newark
(36.7000°N, 45.1333°E)
Time: 21:02:39
(UTC+00:00)

LightSail 2 - Pass Details

Date: 24 January 2020
Orbit: 698 x 724 km, 24.0° (Epoch: 26 February)

Event Time Altitude Azimuth Distance (km) Brightness Sun altitude
Rises 14:51:37 0° 242° (WSW) 3,071 10.6 -7.5°
Reaches altitude 10° 14:54:37 10° 225° (SW) 2,158 8.8 -8.1°
Maximum altitude 14:58:12 19° 180° (S) 1,628 7.2 -8.8°
Drops below altitude 10° 15:01:48 10° 136° (SE) 2,172 7.4 -9.5°
Enters shadow 15:04:23 - 120° (ESE) 2,943 7.9 -10.0°
